Total_Precipitation_Accumulation
0.03 0.06 0.11 0.15 0.15 0.12 0.08 0.05 0.07 0.10 0.19 0.21 0.27 0.32 0.38 0.36 0.32 0.32 0.32 0.27 0.25 0.28 0.42 0.48 0.49 0.46 0.46 0.52 0.65 0.76 0.84 0.97 1.14 1.28 1.30 1.20 1.16 1.20 1.27 1.34 1.40 1.54 1.53 1.47
0.03 0.06 0.10 0.12 0.13 0.10 0.07 0.05 0.05 0.07 0.13 0.18 0.30 0.32 0.36 0.31 0.29 0.35 0.38 0.32 0.30 0.39 0.50 0.49 0.46 0.46 0.47 0.53 0.61 0.66 0.75 0.85 1.01 1.19 1.28 1.25 1.23 1.33 1.44 1.50 1.62 1.68 1.62 1.57
0.04 0.07 0.09 0.15 0.12 0.09 0.08 0.07 0.07 0.10 0.14 0.18 0.24 0.34 0.41 0.40 0.43 0.42 0.35 0.29 0.29 0.36 0.41 0.47 0.42 0.40 0.42 0.47 0.60 0.71 0.84 0.95 1.02 1.15 1.24 1.28 1.29 1.39 1.49 1.52 1.53 1.58 1.56 1.50
0.09 0.10 0.15 0.15 0.12 0.11 0.10 0.11 0.15 0.18 0.20 0.25 0.26 0.33 0.39 0.40 0.40 0.39 0.41 0.47 0.50 0.57 0.58 0.54 0.51 0.51 0.57 0.61 0.71 0.78 0.85 0.94 1.00 1.11 1.23 1.35 1.50 1.60 1.66 1.71 1.71 1.69 1.61 1.55
0.16 0.15 0.17 0.20 0.18 0.17 0.19 0.23 0.23 0.31 0.36 0.36 0.35 0.34 0.42 0.46 0.46 0.50 0.49 0.49 0.58 0.66 0.71 0.65 0.67 0.67 0.75 0.81 0.90 0.96 0.98 1.06 1.13 1.21 1.34 1.43 1.51 1.64 1.74 1.82 1.79 1.77 1.75 1.76
0.24 0.26 0.28 0.27 0.28 0.23 0.24 0.46 0.41 0.43 0.49 0.48 0.48 0.62 0.74 0.73 0.63 0.60 0.61 0.61 0.67 0.68 0.69 0.77 0.81 0.83 0.90 0.98 1.08 1.14 1.13 1.16 1.21 1.37 1.45 1.46 1.47 1.55 1.59 1.64 1.67 1.69 1.66 1.71
0.35 0.34 0.33 0.31 0.31 0.31 0.54 0.79 0.75 0.72 0.70 0.62 0.68 0.74 0.73 0.66 0.70 0.66 0.69 0.77 0.75 0.74 0.78 0.81 0.81 0.83 0.92 1.03 1.14 1.19 1.20 1.20 1.26 1.35 1.50 1.53 1.56 1.53 1.47 1.47 1.51 1.57 1.59 1.63
0.55 0.63 0.65 0.45 0.47 0.63 0.81 0.78 0.91 0.79 0.70 0.68 0.67 0.66 0.62 0.62 0.72 0.79 0.81 0.87 0.85 0.82 0.79 0.79 0.84 0.88 0.95 1.06 1.10 1.11 1.10 1.13 1.19 1.22 1.22 1.27 1.42 1.47 1.46 1.45 1.47 1.52 1.60 1.60
0.75 0.81 0.73 0.61 0.62 0.67 0.63 0.64 0.76 0.73 0.63 0.64 0.62 0.59 0.55 0.60 0.67 0.70 0.75 0.82 0.83 0.85 0.85 0.84 0.88 0.94 1.05 1.08 1.08 1.07 1.11 1.18 1.22 1.24 1.27 1.30 1.34 1.37 1.34 1.29 1.23 1.23 1.34 1.42
1.00 1.00 0.86 0.71 0.59 0.59 0.58 0.59 0.61 0.69 0.73 0.70 0.64 0.59 0.58 0.60 0.65 0.74 0.80 0.82 0.84 0.84 0.87 0.96 1.01 1.08 1.06 1.01 1.03 1.11 1.13 1.12 1.13 1.18 1.18 1.21 1.31 1.29 1.23 1.17 1.10 1.08 1.24 1.36
1.41 1.47 1.25 1.07 0.88 0.77 0.71 0.68 0.69 0.75 0.80 0.85 0.84 0.81 0.78 0.70 0.67 0.69 0.76 0.76 0.78 0.84 0.90 0.98 1.00 1.05 1.12 1.10 1.06 1.08 1.04 1.00 1.07 1.11 1.06 1.01 1.11 1.18 1.08 1.06 1.09 1.11 1.27 1.49
1.67 1.53 1.48 1.35 1.08 0.91 0.86 0.87 0.81 0.83 0.85 0.85 0.84 0.84 0.83 0.81 0.70 0.63 0.64 0.73 0.80 0.83 0.89 0.96 0.98 1.00 1.00 1.01 1.04 1.09 1.12 1.06 1.00 0.98 0.97 0.99 1.04 1.06 1.04 0.91 0.90 0.88 0.95 1.07
1.29 1.29 1.29 1.20 1.05 0.88 0.85 0.84 0.87 0.85 0.84 0.83 0.82 0.74 0.69 0.72 0.74 0.69 0.69 0.73 0.82 0.89 0.93 0.94 0.93 0.94 0.93 0.96 1.05 1.11 1.13 1.09 0.99 0.88 0.83 0.84 0.88 0.94 0.97 0.90 0.72 0.66 0.66 0.66
1.23 1.22 1.26 1.16 1.07 0.89 0.85 0.77 0.73 0.70 0.68 0.69 0.73 0.70 0.65 0.65 0.69 0.74 0.79 0.83 0.91 0.97 0.93 0.89 0.87 0.86 0.85 0.85 0.89 0.90 0.92 0.94 0.88 0.81 0.78 0.75 0.75 0.77 0.78 0.85 0.86 0.76 0.64 0.57
1.08 1.08 1.21 1.15 1.02 0.94 0.92 0.83 0.69 0.60 0.57 0.61 0.65 0.63 0.64 0.69 0.74 0.82 0.86 0.93 0.98 0.97 0.88 0.81 0.79 0.82 0.85 0.88 0.87 0.83 0.87 0.86 0.78 0.76 0.77 0.79 0.80 0.77 0.74 0.78 0.88 0.95 0.89 0.68
1.00 1.01 1.02 1.06 1.13 1.05 0.96 0.88 0.80 0.71 0.62 0.62 0.64 0.64 0.59 0.62 0.70 0.78 0.85 0.95 1.04 1.05 0.95 0.86 0.79 0.72 0.70 0.81 0.86 0.81 0.80 0.87 0.80 0.73 0.73 0.77 0.78 0.76 0.79 0.88 0.97 1.09 1.10 0.86
1.03 1.05 0.97 0.96 1.04 1.04 0.97 0.89 0.84 0.80 0.75 0.74 0.72 0.68 0.65 0.63 0.72 0.83 0.88 0.88 0.89 0.88 0.87 0.84 0.73 0.62 0.60 0.68 0.72 0.74 0.73 0.74 0.75 0.68 0.72 0.76 0.78 0.80 0.83 0.94 1.05 1.12 1.07 0.85
0.93 0.86 0.80 0.80 0.85 0.86 0.88 0.88 0.87 0.81 0.78 0.77 0.74 0.68 0.66 0.69 0.80 0.93 0.98 0.96 0.85 0.77 0.75 0.71 0.62 0.55 0.58 0.62 0.65 0.69 0.69 0.69 0.69 0.69 0.71 0.72 0.74 0.81 0.89 1.02 1.12 1.16 1.03 0.86
0.85 0.81 0.73 0.70 0.67 0.68 0.75 0.82 0.83 0.79 0.73 0.70 0.69 0.66 0.62 0.62 0.74 0.88 0.93 1.02 1.06 0.97 0.81 0.67 0.62 0.54 0.56 0.59 0.59 0.63 0.65 0.67 0.69 0.72 0.73 0.69 0.70 0.75 0.80 0.89 1.02 1.07 0.97 0.90
0.83 0.82 0.75 0.69 0.65 0.62 0.63 0.64 0.69 0.73 0.68 0.62 0.59 0.58 0.56 0.59 0.74 0.91 0.97 1.05 1.14 1.07 0.90 0.74 0.52 0.44 0.42 0.43 0.47 0.45 0.46 0.46 0.46 0.49 0.50 0.52 0.56 0.60 0.62 0.67 0.79 0.86 0.83 0.86
0.88 0.84 0.79 0.70 0.68 0.65 0.61 0.56 0.58 0.64 0.63 0.63 0.62 0.59 0.57 0.59 0.66 0.84 1.12 1.23 1.07 0.91 0.83 0.80 0.54 0.38 0.32 0.35 0.42 0.39 0.40 0.40 0.40 0.43 0.43 0.44 0.48 0.53 0.59 0.65 0.70 0.74 0.78 0.82
0.88 0.83 0.76 0.69 0.65 0.67 0.64 0.59 0.57 0.60 0.59 0.58 0.57 0.56 0.55 0.54 0.58 0.71 0.88 1.07 1.00 0.89 0.69 0.63 0.53 0.38 0.31 0.27 0.26 0.31 0.36 0.40 0.43 0.46 0.48 0.49 0.52 0.56 0.60 0.62 0.65 0.68 0.74 0.81
0.87 0.83 0.76 0.68 0.62 0.64 0.63 0.61 0.56 0.54 0.55 0.52 0.50 0.52 0.53 0.52 0.53 0.68 0.78 0.73 0.71 0.71 0.56 0.51 0.50 0.42 0.33 0.27 0.26 0.28 0.30 0.36 0.40 0.43 0.44 0.45 0.50 0.55 0.59 0.61 0.62 0.64 0.74 0.79
0.81 0.82 0.77 0.74 0.67 0.62 0.64 0.63 0.56 0.53 0.51 0.50 0.51 0.52 0.52 0.51 0.50 0.51 0.57 0.63 0.66 0.66 0.56 0.55 0.49 0.40 0.35 0.33 0.36 0.36 0.36 0.37 0.38 0.38 0.39 0.44 0.50 0.56 0.64 0.70 0.72 0.71 0.73 0.72
0.78 0.75 0.73 0.74 0.68 0.60 0.58 0.57 0.56 0.56 0.54 0.52 0.51 0.51 0.49 0.48 0.52 0.53 0.52 0.55 0.60 0.58 0.54 0.55 0.51 0.48 0.42 0.43 0.47 0.47 0.44 0.44 0.44 0.43 0.45 0.49 0.56 0.64 0.69 0.72 0.72 0.68 0.66 0.66
0.69 0.66 0.66 0.64 0.60 0.56 0.55 0.55 0.58 0.57 0.56 0.55 0.56 0.55 0.50 0.48 0.51 0.57 0.63 0.62 0.59 0.57 0.52 0.48 0.46 0.48 0.46 0.49 0.54 0.55 0.53 0.51 0.50 0.49 0.53 0.58 0.64 0.70 0.68 0.61 0.59 0.58 0.56 0.52
0.63 0.62 0.63 0.63 0.62 0.57 0.53 0.53 0.58 0.65 0.65 0.59 0.60 0.59 0.57 0.58 0.61 0.64 0.63 0.63 0.61 0.57 0.51 0.46 0.42 0.39 0.40 0.44 0.47 0.51 0.52 0.52 0.51 0.53 0.56 0.59 0.59 0.56 0.52 0.47 0.47 0.45 0.42 0.42